Location: Wildcat Hills Observatory
(41.6350°N, 103.6812°W)
Time: 07:58:32
(UTC-06:00)

Cosmos 1726 - Pass Details

Date: 23 June 2018
Orbit: 486 x 502 km, 82.5° (Epoch: 22 July)

Event Time Altitude Azimuth Distance (km) Brightness Sun altitude
Rises 22:33:54 0° 343° (NNW) 2,605 7.2 -17.0°
Reaches altitude 10° 22:36:07 10° 335° (NNW) 1,717 6.1 -17.2°
Maximum altitude 22:39:35 36° 268° (W) 813 3.4 -17.6°
Enters shadow 22:41:45 19° 212° (SSW) 1,243 3.9 -17.8°
